Lapse_Rate
8.5 8.5 8.7 8.4 7.8 6.8 7.6 7.3 6.7 7.8 7.8 7.5 7.2 7.2 7.1 7.0 7.0 6.8 6.4 6.3 6.1 6.0 5.8 5.9 5.6 6.0 6.4 6.3 6.2 6.2 6.0 5.6 5.4
8.2 8.1 8.4 8.7 8.5 8.5 7.9 7.2 7.4 7.9 7.9 7.7 7.4 7.2 7.1 7.1 7.0 6.8 6.7 6.6 6.3 5.9 5.7 5.5 5.7 5.9 6.2 5.8 5.7 6.0 6.2 6.2 6.1
7.7 7.8 7.8 7.8 8.0 8.1 8.3 8.3 8.5 7.6 7.5 7.6 7.4 7.1 7.0 7.0 7.1 6.9 6.8 6.7 6.5 6.0 5.3 5.2 5.3 5.6 6.1 6.2 6.0 5.9 6.0 6.1 6.1
7.7 7.7 7.7 7.6 7.6 7.7 7.7 7.7 7.7 7.6 7.9 7.9 7.6 7.4 7.1 6.7 6.7 6.8 6.7 6.5 6.4 6.2 5.6 5.4 5.4 5.7 5.7 6.0 6.3 6.3 6.3 6.3 6.3
7.4 7.4 7.4 7.4 7.5 7.3 7.2 7.3 7.4 7.4 7.5 7.4 7.3 7.3 7.2 7.1 6.8 6.8 6.5 6.0 6.6 6.5 6.3 6.1 5.8 5.9 5.9 5.8 5.9 6.0 6.4 6.5 6.4
6.8 6.7 6.8 6.7 6.7 7.0 7.0 7.0 7.0 7.1 7.1 7.1 7.0 6.9 7.0 6.8 6.8 6.7 6.7 6.8 6.8 6.6 6.4 6.2 6.0 5.9 5.9 6.1 5.9 6.0 6.1 6.4 6.5
5.4 5.5 5.9 6.1 6.2 6.4 6.5 6.6 6.5 6.5 6.7 6.9 7.0 6.8 6.5 6.4 6.5 6.6 6.7 6.7 6.6 6.5 6.4 6.3 6.1 5.8 5.9 6.0 6.1 6.1 6.0 6.3 6.3
4.9 4.9 4.7 5.6 6.1 6.0 6.1 6.2 6.3 6.3 6.3 6.4 6.6 6.8 6.8 6.6 6.6 6.5 6.5 6.6 6.6 6.4 6.1 5.9 5.9 5.8 5.9 5.9 6.0 6.1 6.1 6.0 6.1
4.9 5.2 5.4 5.8 5.8 5.8 5.7 5.7 5.9 6.3 6.3 6.3 6.2 6.4 6.4 6.4 6.4 6.4 6.0 6.0 6.3 6.4 6.3 6.2 6.0 5.8 5.9 6.3 6.3 6.4 6.0 5.9 6.1
5.6 5.8 5.7 5.8 5.9 5.8 5.8 5.9 5.9 6.2 6.3 6.2 6.0 6.0 6.0 5.9 5.7 5.5 6.0 6.4 6.5 6.5 6.8 6.5 6.1 6.0 5.8 6.1 6.3 6.3 6.3 5.9 5.9
5.9 5.8 5.8 5.9 5.9 6.0 5.7 5.9 6.2 6.6 6.4 6.3 5.7 5.5 5.4 5.3 5.3 5.3 5.6 5.9 6.1 6.2 6.2 6.2 6.1 6.1 6.0 6.1 6.4 6.4 6.4 6.3 5.8
5.9 6.0 5.9 5.8 5.8 5.7 5.7 6.0 6.1 6.2 6.1 5.6 5.4 5.3 4.9 4.7 4.8 4.9 5.0 5.4 5.7 5.8 5.9 6.0 6.1 6.1 6.1 6.3 6.4 6.6 6.6 6.5 6.3
5.9 6.0 5.9 5.8 5.9 6.1 6.3 6.4 6.3 6.2 6.0 6.0 5.3 5.3 5.3 5.1 5.0 4.8 4.7 4.8 5.2 5.5 5.7 5.9 5.9 5.8 5.7 6.1 6.2 6.5 6.9 7.0 6.8
6.1 6.1 6.1 6.3 6.3 6.3 6.2 6.3 6.4 6.2 6.0 5.9 5.8 5.4 5.0 4.9 4.9 4.8 4.7 4.8 5.0 5.3 5.4 5.6 5.8 5.9 5.8 5.8 5.9 6.3 6.6 7.0 7.0
6.1 6.0 6.0 6.2 6.5 6.4 6.2 6.1 6.0 6.4 6.1 5.6 5.4 5.1 5.0 4.8 4.8 4.9 4.8 4.9 5.0 4.9 5.1 5.4 5.8 5.9 6.0 5.9 5.6 5.9 6.3 6.4 6.7
6.2 6.3 6.4 6.6 6.4 6.3 6.2 6.3 6.4 6.3 5.7 5.2 4.6 4.4 4.7 4.5 4.5 4.8 5.0 5.0 5.4 5.3 5.3 5.3 5.6 5.8 5.5 5.6 5.5 5.6 5.9 6.3 6.5
6.3 6.5 6.8 6.7 6.5 6.2 6.3 6.5 6.2 5.6 5.2 4.6 4.3 4.1 4.1 4.1 4.2 4.7 5.0 5.2 5.5 5.5 5.0 5.3 5.7 5.2 5.3 6.0 6.0 5.8 6.2 6.1 6.1
6.6 6.6 6.7 6.6 6.4 6.3 6.2 6.1 5.4 4.9 4.5 4.4 4.2 3.9 3.8 3.7 4.2 4.4 5.2 5.4 5.6 5.9 5.2 5.3 5.9 5.8 6.0 6.2 6.4 6.4 6.2 6.1 5.7
6.9 7.1 6.7 6.6 6.6 6.4 6.1 5.8 5.2 4.9 4.6 4.5 4.6 3.9 3.9 3.9 4.2 4.5 5.0 5.5 5.8 6.1 6.2 6.1 6.0 6.1 6.1 6.4 6.5 6.7 6.6 6.4 5.9
6.9 6.8 6.6 6.5 6.5 6.4 6.2 5.9 5.6 5.3 4.8 4.7 4.5 4.2 4.1 4.3 4.6 4.8 5.0 5.4 5.8 6.1 6.1 6.3 5.9 5.7 6.0 6.3 6.8 6.8 6.7 6.5 6.4
Wind_Speed
16 17 16 15 14 10 5 3 5 10 10 11 13 14 14 13 15 11 11 11 9 9 9 7 8 9 10 12 9 9 9 9 8
15 15 14 16 14 12 11 4 1 4 8 9 11 13 10 12 13 14 13 13 9 11 11 9 8 8 7 11 11 11 11 9 10
12 13 14 13 13 13 12 14 15 10 4 6 7 11 13 12 13 12 14 13 12 10 7 8 10 8 12 11 12 12 11 10 10
10 10 11 11 12 11 12 10 11 12 11 13 13 13 13 7 11 14 14 14 13 12 14 12 11 10 12 13 13 12 11 11 11
8 8 8 9 10 11 11 10 11 11 12 11 8 9 8 8 11 13 10 7 10 11 12 12 13 13 13 14 14 13 12 13 13
6 6 7 8 8 9 10 11 11 9 8 9 10 10 6 5 7 6 7 7 6 7 9 10 12 12 13 14 13 13 14 13 13
3 3 5 7 9 8 9 9 10 10 11 8 6 8 11 10 7 7 5 7 6 6 5 5 7 9 12 13 12 14 15 15 15
6 8 6 8 10 10 11 11 10 11 11 11 11 10 8 9 9 9 9 11 10 10 11 12 11 11 11 11 11 10 14 15 15
8 9 10 10 12 13 13 12 12 13 13 13 12 12 11 9 8 9 10 10 11 11 11 12 12 13 12 14 13 12 16 15 15
9 10 11 12 13 13 12 13 13 13 14 14 14 13 13 10 8 9 9 10 11 11 11 12 12 13 13 13 14 15 12 12 11
7 10 12 13 12 12 13 15 15 15 17 14 14 14 14 13 11 11 9 10 12 10 11 11 11 12 12 13 12 15 14 14 15
9 11 12 12 12 13 13 13 11 13 12 14 16 11 13 13 12 13 13 13 12 11 11 11 11 12 12 12 13 13 14 11 15
10 11 11 12 13 14 13 13 14 13 13 12 14 13 14 12 13 13 15 14 13 12 11 12 11 12 12 12 14 14 14 12 13
10 9 10 11 12 12 11 10 13 15 13 14 14 15 14 14 14 15 15 15 13 13 12 11 11 12 12 15 13 13 12 10 13
10 11 11 12 12 12 13 12 14 14 14 15 15 16 16 15 15 14 14 15 13 13 12 12 11 11 13 13 9 11 8 5 14
9 10 10 10 11 13 13 12 11 12 14 13 15 17 14 14 14 16 15 14 14 11 13 13 11 10 9 9 10 9 6 4 7
9 10 10 10 11 12 13 12 12 12 11 10 11 13 14 12 14 15 14 12 11 12 13 11 11 7 8 9 9 8 10 6 6
9 9 8 8 9 10 12 12 13 13 13 14 13 12 11 12 14 12 13 11 11 11 13 4 9 9 9 9 10 7 7 10 11
7 9 9 9 10 11 12 13 13 14 13 13 13 12 9 9 11 11 11 10 11 13 17 17 9 9 9 9 7 9 7 7 13
8 8 9 9 10 9 10 11 13 12 12 12 12 12 12 10 11 10 10 10 9 9 13 12 12 15 10 14 14 7 6 6 8
Wind_Direction
51 47 53 53 28 42 44 329 225 194 210 217 220 222 222 227 231 231 233 238 232 237 250 252 215 198 207 230 224 213 227 227 232
58 53 46 43 46 34 21 37 334 228 217 210 224 227 216 223 227 235 244 241 208 226 235 229 219 209 236 203 225 235 226 227 229
61 56 50 47 40 33 25 19 10 3 328 259 231 240 227 219 229 231 238 240 256 256 231 229 249 235 230 235 233 230 233 227 230
59 46 44 43 37 38 34 23 25 24 31 30 19 9 338 287 242 226 228 240 240 237 246 249 248 237 242 247 239 233 230 234 227
53 56 33 33 39 23 22 34 17 8 1 345 3 336 348 348 351 332 307 273 255 261 254 253 254 241 235 236 242 237 230 228 233
81 32 28 22 23 21 8 6 2 5 353 343 336 311 258 310 321 356 6 354 355 358 338 289 270 263 248 242 240 237 232 231 230
30 30 11 13 351 4 351 347 347 342 341 337 304 308 319 306 274 275 294 297 304 292 257 251 291 293 282 269 261 251 239 230 230
354 344 337 350 344 338 331 330 332 325 327 325 329 319 317 316 305 296 284 287 291 289 281 275 273 260 265 265 248 254 253 248 241
338 341 341 346 336 329 325 329 320 318 312 312 316 316 307 302 298 289 282 285 284 288 286 277 266 261 263 266 264 247 226 249 255
357 351 338 330 324 320 321 315 308 308 311 311 306 303 300 295 284 290 287 282 283 284 285 284 276 271 264 258 262 264 248 238 258
349 334 327 323 317 322 325 323 318 338 324 304 296 296 294 296 301 298 287 276 272 262 275 277 271 275 276 273 260 259 259 236 246
339 335 331 333 331 321 318 308 324 320 319 317 310 303 300 302 299 299 300 292 284 283 278 273 276 288 287 277 278 264 248 238 257
348 348 341 325 318 316 329 333 320 321 310 310 302 336 332 321 311 301 294 293 291 294 287 279 287 283 284 287 282 274 259 231 258
338 341 332 332 319 317 328 332 318 310 308 306 309 311 313 314 314 303 289 286 287 285 287 289 283 283 281 281 273 272 280 253 257
337 338 341 339 332 330 330 330 328 311 309 314 315 308 302 300 296 288 287 286 283 281 274 277 269 274 275 271 247 232 249 308 239
334 339 347 342 340 324 319 322 323 305 313 326 316 310 300 294 291 287 284 278 275 277 262 255 274 276 292 313 323 321 154 253 248
339 349 345 345 334 331 323 322 321 313 303 303 307 308 310 299 292 285 277 275 266 256 256 260 254 285 303 294 293 305 326 304 286
349 336 334 343 341 326 323 331 324 323 326 323 311 307 305 305 294 291 294 278 271 272 270 310 327 317 310 299 288 318 341 318 304
353 330 339 338 339 332 335 331 325 324 325 320 310 305 301 298 298 301 308 301 305 275 248 270 257 255 247 272 252 297 304 318 303
335 359 335 344 335 338 332 329 326 328 320 316 309 299 302 303 304 317 310 308 304 296 290 243 237 238 229 219 257 266 271 253 275